Skip Page Navigation
NASA JPL Caltech
NASA Logo - Jet Propulsion Laboratory + View the NASA Portal
+ Center for Near-Earth Object Studies
JPL Home Earth Solar System Stars & Galaxies Technology
JPL Solar System Dynamics
BODIES ORBITS EPHEMERIDES TOOLS PHYSICAL DATA DISCOVERY FAQ SITE MAP
IMPORTANT: The SSD Announcement email list is now available. Major changes are coming in the near future, including possible hostname and/or URL changes. To be notified of such changes, subscribe to this email list.

Please visit this page for more details.


JPL Small-Body Database Browser
Search: [ help ]  
46414 (2002 GD113)
Classification: Main-belt Asteroid          SPK-ID: 2046414
Ephemeris | Orbit Diagram | Orbital Elements | Mission Design | Physical Parameters | Discovery Circumstances ]

[ show orbit diagram ]
Orbital Elements at Epoch 2458600.5 (2019-Apr-27.0) TDB
Reference: JPL 24 (heliocentric ecliptic J2000)
 Element Value Uncertainty (1-sigma)   Units 
e .08438359659771968 3.3436e-08  
a 2.962189590002523 2.1579e-08 au
q 2.712229378593785 1.0335e-07 au
i 11.26798702683867 4.1941e-06 deg
node 144.1048332635207 1.9128e-05 deg
peri 291.4168324275949 3.2239e-05 deg
M 236.7683892353266 2.7501e-05 deg
tp 2459237.937087889283
(2021-Jan-23.43708789)
0.00014409 TDB
period 1862.163045798035
5.10
2.0349e-05
5.571e-08
d
yr
n .1933235657384239 2.1125e-09 deg/d
Q 3.212149801411261 2.34e-08 au
  Orbit Determination Parameters
   # obs. used (total)      859  
   data-arc span      10511 days (28.78 yr)  
   first obs. used      1991-01-18  
   last obs. used      2019-10-29  
   planetary ephem.      DE431  
   SB-pert. ephem.      SB431-N16  
   condition code      0  
   norm. resid. RMS      .52333  
   source      ORB  
   producer      Otto Matic  
   solution date      2019-Nov-07 06:27:05  

Additional Information
 Earth MOID = 1.75246 au 
 Jupiter MOID = 1.99722 au 
 T_jup = 3.231 
[ show covariance matrix ]

Ephemeris | Orbit Diagram | Orbital Elements | Mission Design | Physical Parameters | Discovery Circumstances ]

Physical Parameter Table
Parameter Symbol Value Units Sigma Reference Notes
absolute magnitude H 14.3   n/a MPO449294  

46414 (2002 GD113)          Discovered 2002-Apr-11 by LONEOS at Anderson Mesa
Reference: 20020822/Numbers.arcLast Updated: 2004-04-19
Ephemeris | Orbit Diagram | Orbital Elements | Mission Design | Physical Parameters | Discovery Circumstances ]
ABOUT SSD CREDITS/AWARDS PRIVACY/COPYRIGHT GLOSSARY LINKS
FirstGov
(server date/time)  
NASA Home Page
Site Manager:   Ryan S. Park
Webmaster  Alan B. Chamberlin